• In Deutschland
  • Länderverzeichnis
  • Für 7 Tage
  • Wassertemperatur
  • Satellitenkarten
  • Wetterkarte
  • Widgets
  • user-avatar
    Anmelden

    Stündliche Wetter Kętrzyn

    Heute, 11 Dezember, Montag

    Zeit Temperatur Niederschläge Wind Luftdruck Luftfeuchtigkeit
    00:00 -3°C° 0 mm 6 m/S 737 mmHg 70%
    01:00 -3°C° 0 mm 6 m/S 736 mmHg 64%
    02:00 -3°C° 0,2 mm 6 m/S 736 mmHg 70%
    03:00 -3°C° 0,2 mm 6 m/S 736 mmHg 76%
    04:00 -3°C° 0,2 mm 6 m/S 736 mmHg 82%
    05:00 -3°C° 0,2 mm 6 m/S 736 mmHg 82%
    06:00 -2°C° 0,2 mm 6 m/S 735 mmHg 82%
    07:00 -2°C° 0,2 mm 6 m/S 735 mmHg 82%
    08:00 -1°C° 0,3 mm 6 m/S 736 mmHg 83%
    09:00 -1°C° 0,3 mm 6 m/S 736 mmHg 84%
    10:00 +1°C° 0,3 mm 5 m/S 736 mmHg 84%
    11:00 +1°C° 0 mm 5 m/S 736 mmHg 85%
    12:00 +1°C° 0 mm 5 m/S 737 mmHg 85%
    13:00 +3°C° 0 mm 4 m/S 737 mmHg 86%
    14:00 +1°C° 0 mm 4 m/S 737 mmHg 87%
    15:00 0°C° 0 mm 4 m/S 737 mmHg 89%
    16:00 0°C° 0 mm 4 m/S 738 mmHg 91%
    17:00 0°C° 0 mm 4 m/S 738 mmHg 90%
    18:00 0°C° 0 mm 4 m/S 737 mmHg 90%
    19:00 0°C° 0 mm 5 m/S 737 mmHg 89%
    20:00 0°C° 0 mm 5 m/S 737 mmHg 89%
    21:00 +1°C° 0 mm 5 m/S 737 mmHg 90%
    22:00 +1°C° 0 mm 6 m/S 736 mmHg 90%
    23:00 +2°C° 0,1 mm 6 m/S 736 mmHg 90%

    Morgen, 12 Dezember, Dienstag

    Zeit Temperatur Niederschläge Wind Luftdruck Luftfeuchtigkeit
    00:00 +3°C° 0,1 mm 6 m/S 735 mmHg 90%
    01:00 +3°C° 0,1 mm 6 m/S 735 mmHg 91%
    02:00 +4°C° 0 mm 6 m/S 735 mmHg 90%
    03:00 +4°C° 0 mm 6 m/S 735 mmHg 89%
    04:00 +4°C° 0 mm 6 m/S 735 mmHg 88%
    05:00 +5°C° 0 mm 6 m/S 735 mmHg 88%
    06:00 +5°C° 0 mm 6 m/S 735 mmHg 88%
    07:00 +5°C° 0 mm 6 m/S 736 mmHg 88%
    08:00 +5°C° 0 mm 6 m/S 736 mmHg 88%
    09:00 +5°C° 0 mm 5 m/S 737 mmHg 88%
    10:00 +5°C° 0 mm 5 m/S 738 mmHg 87%
    11:00 +5°C° 0 mm 5 m/S 738 mmHg 85%
    12:00 +6°C° 0 mm 5 m/S 738 mmHg 83%
    13:00 +6°C° 0 mm 5 m/S 739 mmHg 81%
    14:00 +6°C° 0 mm 5 m/S 739 mmHg 79%
    15:00 +4°C° 0 mm 6 m/S 740 mmHg 77%
    16:00 +4°C° 0 mm 6 m/S 740 mmHg 75%
    17:00 +4°C° 0 mm 7 m/S 741 mmHg 74%
    18:00 +3°C° 0 mm 7 m/S 741 mmHg 73%
    19:00 +2°C° 0 mm 8 m/S 742 mmHg 72%
    20:00 +2°C° 0 mm 8 m/S 742 mmHg 73%
    21:00 +2°C° 0 mm 8 m/S 743 mmHg 73%
    22:00 +1°C° 0 mm 8 m/S 744 mmHg 73%
    23:00 +1°C° 0 mm 8 m/S 744 mmHg 74%

    übermorgen, 13 Dezember, Mittwoch

    Zeit Temperatur Niederschläge Wind Luftdruck Luftfeuchtigkeit
    00:00 +1°C° 0 mm 8 m/S 745 mmHg 74%
    01:00 0°C° 0 mm 8 m/S 745 mmHg 74%
    02:00 0°C° 0 mm 7 m/S 746 mmHg 75%
    03:00 0°C° 0 mm 7 m/S 746 mmHg 75%
    04:00 -1°C° 0 mm 7 m/S 747 mmHg 76%
    05:00 -1°C° 0 mm 6 m/S 748 mmHg 77%
    06:00 -1°C° 0 mm 6 m/S 749 mmHg 79%
    07:00 -1°C° 0 mm 5 m/S 749 mmHg 80%
    08:00 -1°C° 0 mm 5 m/S 750 mmHg 80%
    09:00 -1°C° 0 mm 5 m/S 751 mmHg 80%
    10:00 -2°C° 0 mm 6 m/S 751 mmHg 81%
    11:00 0°C° 0 mm 5 m/S 751 mmHg 80%
    12:00 0°C° 0 mm 5 m/S 751 mmHg 78%
    13:00 0°C° 0 mm 5 m/S 751 mmHg 77%
    14:00 0°C° 0 mm 5 m/S 751 mmHg 79%
    15:00 -1°C° 0 mm 5 m/S 751 mmHg 82%
    16:00 -1°C° 0 mm 5 m/S 751 mmHg 84%
    17:00 -1°C° 0 mm 5 m/S 750 mmHg 83%
    18:00 -2°C° 0 mm 5 m/S 750 mmHg 82%
    19:00 -3°C° 0 mm 6 m/S 750 mmHg 82%
    20:00 -3°C° 0 mm 6 m/S 749 mmHg 80%
    21:00 -3°C° 0 mm 6 m/S 749 mmHg 78%
    22:00 -2°C° 0 mm 6 m/S 748 mmHg 76%
    23:00 -2°C° 0 mm 7 m/S 748 mmHg 74%

    14 Dezember, Donnerstag

    Zeit Temperatur Niederschläge Wind Luftdruck Luftfeuchtigkeit
    00:00 -2°C° 0 mm 7 m/S 747 mmHg 73%
    01:00 -2°C° 0 mm 7 m/S 746 mmHg 72%
    02:00 -2°C° 0 mm 7 m/S 746 mmHg 71%
    03:00 -2°C° 0 mm 7 m/S 745 mmHg 71%
    04:00 -2°C° 0 mm 7 m/S 744 mmHg 70%
    05:00 -2°C° 0 mm 7 m/S 744 mmHg 70%
    06:00 -2°C° 0 mm 7 m/S 743 mmHg 70%
    07:00 -2°C° 0 mm 8 m/S 743 mmHg 71%
    08:00 -1°C° 0 mm 8 m/S 742 mmHg 71%
    09:00 -1°C° 0 mm 8 m/S 742 mmHg 71%
    10:00 -1°C° 0 mm 8 m/S 741 mmHg 71%
    11:00 -1°C° 0,2 mm 8 m/S 741 mmHg 73%
    12:00 0°C° 0,2 mm 7 m/S 740 mmHg 74%
    13:00 0°C° 0,2 mm 7 m/S 740 mmHg 75%
    14:00 +1°C° 0,1 mm 6 m/S 740 mmHg 78%
    15:00 -1°C° 0,1 mm 6 m/S 740 mmHg 80%
    16:00 0°C° 0,1 mm 5 m/S 740 mmHg 82%
    17:00 0°C° 0 mm 5 m/S 739 mmHg 83%
    18:00 0°C° 0 mm 5 m/S 739 mmHg 84%
    19:00 +1°C° 0 mm 5 m/S 738 mmHg 85%
    20:00 0°C° 0 mm 5 m/S 738 mmHg 86%
    21:00 0°C° 0 mm 5 m/S 737 mmHg 87%
    22:00 -1°C° 0 mm 6 m/S 737 mmHg 87%
    23:00 -1°C° 0 mm 6 m/S 736 mmHg 88%

    15 Dezember, Freitag

    Zeit Temperatur Niederschläge Wind Luftdruck Luftfeuchtigkeit
    00:00 0°C° 0 mm 5 m/S 735 mmHg 88%
    01:00 0°C° 0 mm 5 m/S 735 mmHg 88%
    02:00 -1°C° 1,2 mm 6 m/S 734 mmHg 88%
    03:00 -1°C° 1,2 mm 6 m/S 734 mmHg 88%
    04:00 0°C° 1,2 mm 7 m/S 734 mmHg 88%
    05:00 -1°C° 0,4 mm 7 m/S 734 mmHg 87%
    06:00 -1°C° 0,4 mm 7 m/S 735 mmHg 85%
    07:00 -1°C° 0,4 mm 7 m/S 736 mmHg 84%
    08:00 -2°C° 0 mm 6 m/S 737 mmHg 84%
    09:00 -2°C° 0 mm 6 m/S 738 mmHg 85%
    10:00 -2°C° 0 mm 6 m/S 739 mmHg 85%
    11:00 -2°C° 0 mm 6 m/S 739 mmHg 85%
    12:00 -2°C° 0 mm 6 m/S 740 mmHg 84%
    13:00 0°C° 0 mm 5 m/S 740 mmHg 83%
    14:00 -1°C° 0 mm 5 m/S 740 mmHg 83%
    15:00 -1°C° 0 mm 5 m/S 740 mmHg 84%
    16:00 -2°C° 0 mm 5 m/S 740 mmHg 84%
    17:00 -2°C° 0 mm 5 m/S 740 mmHg 85%
    18:00 -2°C° 0 mm 5 m/S 741 mmHg 85%
    19:00 -2°C° 0 mm 4 m/S 741 mmHg 86%
    20:00 -2°C° 0 mm 4 m/S 741 mmHg 86%
    21:00 -2°C° 0 mm 4 m/S 741 mmHg 86%
    22:00 -2°C° 0 mm 3 m/S 741 mmHg 87%
    23:00 -2°C° 0 mm 3 m/S 741 mmHg 87%

    16 Dezember, Samstag

    Zeit Temperatur Niederschläge Wind Luftdruck Luftfeuchtigkeit
    00:00 -2°C° 0 mm 3 m/S 741 mmHg 88%
    01:00 -2°C° 0 mm 2 m/S 741 mmHg 89%
    02:00 -2°C° 0 mm 2 m/S 741 mmHg 89%
    03:00 -2°C° 0 mm 2 m/S 741 mmHg 89%
    04:00 -2°C° 0 mm 2 m/S 740 mmHg 88%
    05:00 -2°C° 0 mm 2 m/S 740 mmHg 87%
    06:00 -2°C° 0 mm 2 m/S 740 mmHg 86%
    07:00 -2°C° 0 mm 2 m/S 740 mmHg 86%
    08:00 -1°C° 0 mm 2 m/S 741 mmHg 84%
    09:00 -1°C° 0 mm 3 m/S 741 mmHg 83%
    10:00 -1°C° 0 mm 3 m/S 741 mmHg 82%
    11:00 0°C° 0 mm 3 m/S 742 mmHg 82%
    12:00 0°C° 0 mm 3 m/S 742 mmHg 83%
    13:00 0°C° 0 mm 3 m/S 742 mmHg 83%
    14:00 0°C° 0 mm 3 m/S 743 mmHg 85%
    15:00 -1°C° 0 mm 3 m/S 743 mmHg 88%
    16:00 -2°C° 0 mm 3 m/S 743 mmHg 91%
    17:00 -2°C° 0 mm 3 m/S 744 mmHg 91%
    18:00 -2°C° 0 mm 3 m/S 744 mmHg 92%
    19:00 -2°C° 0 mm 3 m/S 744 mmHg 92%
    20:00 -3°C° 0 mm 4 m/S 745 mmHg 93%
    21:00 -3°C° 0 mm 4 m/S 745 mmHg 93%
    22:00 -3°C° 0 mm 4 m/S 745 mmHg 93%
    23:00 -2°C° 0 mm 4 m/S 746 mmHg 92%
    Mehr zeigen